Time,TemperatureF,DewpointF,PressureIn,WindDirection,WindDirectionDegrees,WindSpeedMPH,WindSpeedGustMPH,Humidity,HourlyPrecipIn,Conditions,Clouds,dailyrainin,SoftwareType,DateUTC
2013-11-24 00:04:00,69.5,65.0,30.07,North,5,0.0,3.0,85,0.00,,,0.00,weatherlink.com 1.10,2013-11-24 05:04:00,
2013-11-24 00:19:00,69.1,65.0,30.07,North,5,0.0,4.0,85,0.00,,,0.00,weatherlink.com 1.10,2013-11-24 05:19:00,
2013-11-24 00:34:00,68.5,64.0,30.07,North,5,4.0,4.0,86,0.00,,,0.00,weatherlink.com 1.10,2013-11-24 05:34:00,
2013-11-24 00:49:00,68.3,64.0,30.07,North,5,2.0,4.0,87,0.00,,,0.00,weatherlink.com 1.10,2013-11-24 05:49:00,
2013-11-24 01:04:00,68.2,65.0,30.07,North,5,5.0,5.0,88,0.00,,,0.00,weatherlink.com 1.10,2013-11-24 06:04:00,
2013-11-24 01:19:00,68.3,65.0,30.07,North,5,9.0,9.0,88,0.00,,,0.00,weatherlink.com 1.10,2013-11-24 06:19:00,
2013-11-24 01:34:00,68.5,65.0,30.07,North,5,5.0,10.0,88,0.00,,,0.00,weatherlink.com 1.10,2013-11-24 06:34:00,
2013-11-24 01:49:00,68.5,65.0,30.07,North,5,6.0,10.0,88,0.00,,,0.00,weatherlink.com 1.10,2013-11-24 06:49:00,
2013-11-24 02:04:00,68.5,65.0,30.07,North,5,4.0,9.0,88,0.00,,,0.00,weatherlink.com 1.10,2013-11-24 07:04:00,
2013-11-24 02:19:00,68.4,65.0,30.07,North,5,1.0,9.0,88,0.00,,,0.00,weatherlink.com 1.10,2013-11-24 07:19:00,
2013-11-24 02:34:00,68.4,65.0,30.07,North,5,3.0,5.0,88,0.00,,,0.00,weatherlink.com 1.10,2013-11-24 07:34:00,
2013-11-24 02:49:00,68.3,65.0,30.07,North,5,0.0,9.0,88,0.00,,,0.00,weatherlink.com 1.10,2013-11-24 07:49:00,
2013-11-24 03:04:00,68.1,65.0,30.07,North,5,1.0,9.0,89,0.00,,,0.00,weatherlink.com 1.10,2013-11-24 08:04:00,
2013-11-24 03:19:00,68.0,64.0,30.06,North,5,8.0,12.0,88,0.00,,,0.00,weatherlink.com 1.10,2013-11-24 08:19:00,
2013-11-24 03:34:00,67.8,64.0,30.06,North,5,10.0,13.0,88,0.00,,,0.00,weatherlink.com 1.10,2013-11-24 08:34:00,
2013-11-24 03:49:00,67.5,64.0,30.06,North,5,9.0,15.0,88,0.00,,,0.00,weatherlink.com 1.10,2013-11-24 08:49:00,
2013-11-24 04:04:00,67.2,63.0,30.06,North,5,8.0,17.0,87,0.00,,,0.00,weatherlink.com 1.10,2013-11-24 09:04:00,
2013-11-24 04:19:00,66.7,62.0,30.07,North,5,10.0,15.0,86,0.00,,,0.00,weatherlink.com 1.10,2013-11-24 09:19:00,
2013-11-24 04:49:00,66.0,61.0,30.07,North,5,15.0,18.0,85,0.00,,,0.00,weatherlink.com 1.10,2013-11-24 09:49:00,
2013-11-24 05:04:00,65.7,61.0,30.08,North,5,11.0,15.0,85,0.00,,,0.00,weatherlink.com 1.10,2013-11-24 10:04:00,
2013-11-24 05:19:00,65.5,61.0,30.09,North,5,13.0,14.0,84,0.00,,,0.00,weatherlink.com 1.10,2013-11-24 10:19:00,
2013-11-24 05:34:00,65.2,60.0,30.10,North,5,5.0,13.0,84,0.00,,,0.00,weatherlink.com 1.10,2013-11-24 10:34:00,
2013-11-24 05:50:00,64.9,60.0,30.10,North,5,11.0,15.0,84,0.00,,,0.00,weatherlink.com 1.10,2013-11-24 10:50:00,
2013-11-24 06:05:00,64.5,60.0,30.11,North,5,5.0,10.0,84,0.00,,,0.00,weatherlink.com 1.10,2013-11-24 11:05:00,
2013-11-24 06:20:00,64.3,59.0,30.12,North,5,8.0,11.0,84,0.00,,,0.00,weatherlink.com 1.10,2013-11-24 11:20:00,
2013-11-24 06:35:00,63.9,59.0,30.12,North,5,8.0,16.0,84,0.00,,,0.00,weatherlink.com 1.10,2013-11-24 11:35:00,
2013-11-24 06:50:00,63.6,59.0,30.13,North,5,11.0,13.0,84,0.00,,,0.00,weatherlink.com 1.10,2013-11-24 11:50:00,
2013-11-24 07:20:00,63.3,58.0,30.14,North,5,9.0,13.0,83,0.00,,,0.00,weatherlink.com 1.10,2013-11-24 12:20:00,
2013-11-24 07:35:00,63.1,58.0,30.15,NNE,16,4.0,11.0,83,0.00,,,0.00,weatherlink.com 1.10,2013-11-24 12:35:00,
2013-11-24 07:50:00,63.1,58.0,30.15,North,5,9.0,12.0,84,0.00,,,0.00,weatherlink.com 1.10,2013-11-24 12:50:00,
2013-11-24 08:05:00,63.2,58.0,30.16,North,5,9.0,15.0,83,0.00,,,0.00,weatherlink.com 1.10,2013-11-24 13:05:00,
2013-11-24 08:20:00,63.3,58.0,30.16,North,5,11.0,15.0,83,0.00,,,0.00,weatherlink.com 1.10,2013-11-24 13:20:00,
2013-11-24 08:35:00,63.3,58.0,30.17,North,5,6.0,14.0,82,0.00,,,0.00,weatherlink.com 1.10,2013-11-24 13:35:00,
2013-11-24 08:50:00,64.1,58.0,30.17,North,5,8.0,19.0,81,0.00,,,0.00,weatherlink.com 1.10,2013-11-24 13:50:00,
2013-11-24 09:05:00,64.9,58.0,30.18,North,5,10.0,19.0,79,0.00,,,0.00,weatherlink.com 1.10,2013-11-24 14:05:00,
2013-11-24 09:20:00,65.8,59.0,30.18,North,5,9.0,19.0,78,0.00,,,0.00,weatherlink.com 1.10,2013-11-24 14:20:00,
2013-11-24 09:35:00,66.9,59.0,30.18,North,5,12.0,18.0,75,0.00,,,0.00,weatherlink.com 1.10,2013-11-24 14:35:00,
2013-11-24 09:50:00,67.4,58.0,30.19,North,5,13.0,24.0,72,0.00,,,0.00,weatherlink.com 1.10,2013-11-24 14:50:00,
2013-11-24 10:05:00,67.8,58.0,30.19,NNE,16,10.0,25.0,72,0.00,,,0.00,weatherlink.com 1.10,2013-11-24 15:05:00,
2013-11-24 10:20:00,67.4,58.0,30.19,North,5,11.0,24.0,72,0.00,,,0.00,weatherlink.com 1.10,2013-11-24 15:20:00,
2013-11-24 10:35:00,67.0,58.0,30.20,North,5,10.0,24.0,74,0.00,,,0.00,weatherlink.com 1.10,2013-11-24 15:35:00,
2013-11-24 10:50:00,65.9,57.0,30.20,North,5,19.0,24.0,74,0.00,,,0.00,weatherlink.com 1.10,2013-11-24 15:50:00,
2013-11-24 11:05:00,65.6,57.0,30.21,North,5,14.0,21.0,74,0.00,,,0.00,weatherlink.com 1.10,2013-11-24 16:05:00,
2013-11-24 11:20:00,65.3,56.0,30.20,North,5,13.0,21.0,73,0.00,,,0.00,weatherlink.com 1.10,2013-11-24 16:20:00,
2013-11-24 11:35:00,65.3,56.0,30.20,NNE,19,12.0,23.0,72,0.00,,,0.00,weatherlink.com 1.10,2013-11-24 16:35:00,
2013-11-24 11:50:00,65.4,56.0,30.20,North,5,14.0,24.0,71,0.00,,,0.00,weatherlink.com 1.10,2013-11-24 16:50:00,
2013-11-24 12:05:00,65.5,55.0,30.20,North,5,10.0,25.0,70,0.00,,,0.00,weatherlink.com 1.10,2013-11-24 17:05:00,
2013-11-24 12:20:00,65.3,56.0,30.20,North,353,13.0,24.0,71,0.00,,,0.00,weatherlink.com 1.10,2013-11-24 17:20:00,
2013-11-24 12:35:00,64.9,55.0,30.20,NNE,24,17.0,26.0,71,0.00,,,0.00,weatherlink.com 1.10,2013-11-24 17:35:00,
2013-11-24 12:50:00,64.1,55.0,30.20,NNE,16,8.0,25.0,72,0.00,,,0.00,weatherlink.com 1.10,2013-11-24 17:50:00,
2013-11-24 13:05:00,63.9,55.0,30.20,NNE,18,11.0,21.0,72,0.00,,,0.00,weatherlink.com 1.10,2013-11-24 18:05:00,
2013-11-24 13:21:00,63.6,54.0,30.20,NNE,22,14.0,22.0,71,0.00,,,0.00,weatherlink.com 1.10,2013-11-24 18:21:00,
2013-11-24 13:36:00,63.2,54.0,30.21,NNE,27,14.0,23.0,72,0.00,,,0.00,weatherlink.com 1.10,2013-11-24 18:36:00,
2013-11-24 13:51:00,62.5,53.0,30.21,NNE,22,21.0,25.0,71,0.00,,,0.00,weatherlink.com 1.10,2013-11-24 18:51:00,
2013-11-24 14:06:00,62.1,53.0,30.21,North,353,16.0,27.0,72,0.00,,,0.00,weatherlink.com 1.10,2013-11-24 19:06:00,
2013-11-24 14:21:00,61.5,53.0,30.21,NNE,28,12.0,23.0,73,0.00,,,0.00,weatherlink.com 1.10,2013-11-24 19:21:00,
2013-11-24 14:36:00,61.1,52.0,30.21,NNE,27,11.0,29.0,72,0.00,,,0.00,weatherlink.com 1.10,2013-11-24 19:36:00,
2013-11-24 14:51:00,61.0,52.0,30.22,NE,50,11.0,21.0,72,0.00,,,0.00,weatherlink.com 1.10,2013-11-24 19:51:00,
2013-11-24 15:06:00,60.6,52.0,30.21,NNE,15,17.0,24.0,72,0.00,,,0.00,weatherlink.com 1.10,2013-11-24 20:06:00,
2013-11-24 15:21:00,60.6,52.0,30.21,North,360,10.0,20.0,73,0.00,,,0.00,weatherlink.com 1.10,2013-11-24 20:21:00,
2013-11-24 15:36:00,60.4,51.0,30.21,North,360,11.0,22.0,72,0.00,,,0.00,weatherlink.com 1.10,2013-11-24 20:36:00,
2013-11-24 15:51:00,60.1,51.0,30.22,North,355,10.0,22.0,73,0.00,,,0.00,weatherlink.com 1.10,2013-11-24 20:51:00,
2013-11-24 16:06:00,60.2,51.0,30.23,NNE,15,14.0,18.0,72,0.00,,,0.00,weatherlink.com 1.10,2013-11-24 21:06:00,
2013-11-24 16:21:00,60.2,51.0,30.23,North,356,13.0,22.0,72,0.00,,,0.00,weatherlink.com 1.10,2013-11-24 21:21:00,
2013-11-24 16:36:00,60.1,51.0,30.23,NNE,15,22.0,22.0,72,0.00,,,0.00,weatherlink.com 1.10,2013-11-24 21:36:00,
2013-11-24 16:51:00,59.8,51.0,30.23,NNE,22,15.0,22.0,72,0.00,,,0.00,weatherlink.com 1.10,2013-11-24 21:51:00,
2013-11-24 17:06:00,59.4,50.0,30.23,NNE,19,17.0,24.0,72,0.00,,,0.00,weatherlink.com 1.10,2013-11-24 22:06:00,
2013-11-24 17:21:00,59.0,51.0,30.23,NNE,15,13.0,19.0,74,0.00,,,0.00,weatherlink.com 1.10,2013-11-24 22:21:00,
2013-11-24 17:36:00,58.4,50.0,30.24,NE,46,11.0,22.0,74,0.00,,,0.00,weatherlink.com 1.10,2013-11-24 22:36:00,
2013-11-24 17:51:00,58.3,50.0,30.25,NNE,18,12.0,17.0,75,0.00,,,0.00,weatherlink.com 1.10,2013-11-24 22:51:00,
2013-11-24 18:06:00,58.4,51.0,30.25,NNE,24,8.0,19.0,75,0.00,,,0.00,weatherlink.com 1.10,2013-11-24 23:06:00,
2013-11-24 18:21:00,58.2,50.0,30.25,NNE,22,10.0,18.0,75,0.00,,,0.00,weatherlink.com 1.10,2013-11-24 23:21:00,
2013-11-24 18:37:00,58.1,50.0,30.26,NNE,15,7.0,14.0,75,0.00,,,0.00,weatherlink.com 1.10,2013-11-24 23:37:00,
2013-11-24 18:51:00,58.1,50.0,30.26,NNE,23,11.0,17.0,74,0.00,,,0.00,weatherlink.com 1.10,2013-11-24 23:51:00,
2013-11-24 19:06:00,58.0,50.0,30.26,North,360,12.0,16.0,74,0.00,,,0.00,weatherlink.com 1.10,2013-11-25 00:06:00,
2013-11-24 19:21:00,58.0,50.0,30.26,NNE,27,9.0,16.0,74,0.00,,,0.00,weatherlink.com 1.10,2013-11-25 00:21:00,
2013-11-24 19:36:00,58.2,50.0,30.27,North,5,11.0,20.0,74,0.00,,,0.00,weatherlink.com 1.10,2013-11-25 00:36:00,
2013-11-24 19:51:00,58.2,50.0,30.27,NNE,19,9.0,16.0,74,0.00,,,0.00,weatherlink.com 1.10,2013-11-25 00:51:00,
2013-11-24 20:06:00,58.3,50.0,30.27,NNE,31,9.0,16.0,74,0.00,,,0.00,weatherlink.com 1.10,2013-11-25 01:06:00,
2013-11-24 20:21:00,58.4,50.0,30.27,NNE,23,9.0,16.0,73,0.00,,,0.00,weatherlink.com 1.10,2013-11-25 01:21:00,
2013-11-24 20:36:00,58.3,50.0,30.27,North,350,6.0,15.0,74,0.00,,,0.00,weatherlink.com 1.10,2013-11-25 01:36:00,
2013-11-24 20:51:00,58.4,50.0,30.28,NNE,19,7.0,15.0,74,0.00,,,0.00,weatherlink.com 1.10,2013-11-25 01:51:00,
2013-11-24 21:06:00,58.5,50.0,30.28,NNE,15,9.0,16.0,74,0.00,,,0.00,weatherlink.com 1.10,2013-11-25 02:06:00,
2013-11-24 21:22:00,58.5,51.0,30.28,NE,34,5.0,14.0,75,0.00,,,0.00,weatherlink.com 1.10,2013-11-25 02:22:00,
2013-11-24 21:37:00,58.7,51.0,30.28,NNE,16,11.0,14.0,75,0.00,,,0.00,weatherlink.com 1.10,2013-11-25 02:37:00,
2013-11-24 21:52:00,58.7,51.0,30.28,North,5,11.0,15.0,75,0.00,,,0.00,weatherlink.com 1.10,2013-11-25 02:52:00,
2013-11-24 22:07:00,58.7,51.0,30.28,NNE,33,11.0,14.0,75,0.00,,,0.00,weatherlink.com 1.10,2013-11-25 03:07:00,
2013-11-24 22:22:00,58.9,51.0,30.28,North,5,10.0,14.0,76,0.00,,,0.00,weatherlink.com 1.10,2013-11-25 03:22:00,
2013-11-24 22:37:00,59.0,51.0,30.28,NNE,20,7.0,13.0,76,0.00,,,0.00,weatherlink.com 1.10,2013-11-25 03:37:00,
2013-11-24 22:52:00,59.0,51.0,30.28,North,5,8.0,12.0,76,0.00,,,0.00,weatherlink.com 1.10,2013-11-25 03:52:00,
2013-11-24 23:07:00,59.0,51.0,30.28,NNE,20,7.0,11.0,76,0.00,,,0.00,weatherlink.com 1.10,2013-11-25 04:07:00,
2013-11-24 23:22:00,59.0,52.0,30.28,NNE,16,7.0,14.0,77,0.00,,,0.00,weatherlink.com 1.10,2013-11-25 04:22:00,
2013-11-24 23:37:00,59.0,52.0,30.28,NNE,20,9.0,10.0,77,0.00,,,0.00,weatherlink.com 1.10,2013-11-25 04:37:00,
2013-11-24 23:52:00,59.0,52.0,30.28,NNE,16,5.0,11.0,77,0.00,,,0.00,weatherlink.com 1.10,2013-11-25 04:52:00,